Wind_Speed
14 14 14 14 16 15 15 16 16 15 14 13 12 12 12 11 11 11 10 10 10 10 10 9 8 7 7 6 6 6 6 6 7 8 8 8 9 10 11 11 11 11 12 12 12 11 11 11 11
16 15 14 15 16 16 16 16 15 14 14 13 12 12 12 11 11 11 11 11 11 11 10 9 8 7 7 6 5 5 6 6 7 8 8 8 9 9 10 11 11 10 10 11 11 10 10 10 10
14 14 14 16 16 16 16 16 16 15 14 14 13 12 12 11 11 11 11 11 11 11 10 9 9 8 7 6 6 6 6 7 7 7 7 8 8 9 9 10 10 10 10 10 9 9 9 10 10
13 13 14 15 15 16 16 16 16 15 15 14 13 12 11 12 12 11 12 11 11 10 10 9 8 7 7 6 6 6 6 7 7 7 7 7 8 8 9 9 9 9 9 9 8 8 8 8 8
12 13 15 16 16 16 16 16 16 15 14 14 13 12 12 12 12 12 12 12 11 10 9 9 8 7 7 6 6 6 7 7 7 7 7 7 7 7 7 8 8 8 8 8 8 7 6 7 7
12 12 15 15 16 15 15 16 16 15 14 14 13 12 12 12 13 13 13 12 11 10 10 9 8 8 7 7 7 7 7 7 7 7 7 7 7 7 6 6 7 7 8 7 7 6 5 6 5
11 12 15 15 15 15 15 15 15 14 14 13 13 13 12 12 12 12 13 12 11 11 10 10 9 8 7 7 7 7 7 7 7 7 6 7 7 8 7 6 7 7 7 7 6 5 6 6 5
11 12 13 14 14 14 15 14 14 14 14 14 14 14 13 12 12 12 12 12 12 12 11 10 9 8 8 8 8 7 7 7 7 6 6 6 7 7 7 6 6 7 7 6 6 6 6 6 5
11 12 13 13 13 13 14 14 14 14 14 14 15 15 14 13 13 12 12 11 12 11 11 11 10 9 8 8 7 7 7 7 7 6 6 7 7 6 6 6 5 5 5 5 5 5 5 5 5
11 12 12 12 12 12 13 14 14 15 15 15 15 14 14 14 14 13 12 12 11 11 11 11 10 10 9 9 8 8 8 7 7 7 7 7 6 6 5 5 5 4 4 4 5 5 5 5 4
11 11 11 11 11 12 13 14 14 15 15 15 14 14 14 14 14 13 13 12 11 11 11 11 10 9 9 9 9 8 8 7 7 7 7 6 6 5 5 5 4 4 4 5 5 5 5 5 4
9 9 9 10 11 12 13 13 15 15 14 14 15 15 14 14 13 13 12 12 11 11 11 11 11 10 10 10 9 9 8 8 7 7 7 6 6 6 5 4 4 4 4 5 6 5 5 4 3
7 8 7 8 9 11 12 13 14 14 14 14 15 15 14 13 13 12 12 12 12 11 12 12 11 11 10 11 10 9 9 8 8 7 7 7 7 6 5 4 5 4 4 4 4 4 4 3 3
6 6 6 6 8 9 11 12 12 12 13 14 14 14 14 13 13 13 13 12 13 12 12 12 12 11 11 11 10 10 9 8 8 7 7 7 7 6 5 5 4 4 4 4 4 3 3 2 2
6 6 6 6 7 9 10 11 11 12 12 13 14 14 14 13 12 13 12 12 12 12 12 12 12 12 11 10 10 10 9 8 8 8 7 7 6 6 6 6 5 5 4 4 4 3 2 1 1
5 5 5 5 5 7 7 9 10 11 12 12 13 13 13 13 12 12 12 12 12 12 12 12 12 12 11 10 10 10 10 9 9 8 8 8 7 6 5 6 5 4 4 4 3 2 2 1 0
5 5 4 4 5 5 6 7 9 10 11 10 11 12 12 12 12 12 12 11 12 12 12 12 12 12 11 10 10 9 9 9 8 7 7 7 6 6 5 5 4 4 4 4 3 2 1 1 0
5 4 3 3 3 3 3 5 5 7 9 9 9 10 10 10 11 11 11 11 11 11 11 11 11 11 11 10 10 9 8 8 7 7 7 6 6 5 5 5 4 4 4 3 2 1 1 1 1
7 6 3 2 2 0 2 3 4 5 7 7 8 8 9 9 10 10 10 10 10 10 10 10 10 10 10 10 9 9 8 7 7 6 6 6 6 5 5 4 3 3 2 2 1 1 1 1 2
8 7 5 4 3 2 3 3 2 3 4 5 6 7 8 9 9 8 8 9 9 9 8 9 9 8 8 8 8 9 8 8 7 6 6 6 5 4 4 3 2 2 2 1 1 2 2 2 2
11 9 7 6 5 4 5 4 4 3 2 2 3 5 7 8 7 7 7 7 8 8 7 7 8 7 7 8 8 8 8 7 7 7 5 4 4 4 4 3 2 2 2 2 3 3 4 4 3
13 10 9 9 9 7 6 6 5 5 4 2 2 3 4 5 6 6 5 5 6 7 7 7 7 7 6 6 7 7 6 6 6 6 5 4 4 4 4 4 3 2 3 3 4 4 5 5 5
13 13 12 12 13 12 9 9 7 7 7 5 4 4 3 3 4 4 4 3 4 6 6 6 6 6 5 5 5 6 6 6 7 6 6 5 5 5 4 4 4 4 4 5 5 5 6 6 6
15 15 15 14 14 14 12 11 9 9 10 8 6 5 4 3 3 3 3 2 3 4 5 5 5 6 5 6 6 7 7 7 7 7 7 6 5 5 5 5 5 4 4 5 5 6 6 6 6
17 16 16 16 15 14 13 14 12 9 10 9 7 6 5 3 3 3 3 2 2 3 4 5 5 6 6 6 6 6 6 6 7 7 7 6 6 6 6 6 5 5 5 5 6 7 7 7 7
18 18 18 18 16 14 14 15 11 9 10 10 9 8 5 5 5 3 2 3 3 3 5 5 6 6 7 7 7 6 6 6 6 7 7 7 7 7 7 6 5 6 7 7 8 8 8 8 8
21 20 19 19 18 17 16 15 13 11 11 10 9 9 6 6 5 4 3 4 4 4 5 6 6 7 7 8 7 7 7 6 6 6 7 6 7 7 7 7 7 7 8 8 9 9 10 10 10
23 22 22 23 21 20 18 16 14 12 10 10 8 7 7 7 7 6 5 5 5 5 6 6 7 7 8 8 8 8 7 7 7 7 8 7 7 7 8 8 8 9 9 10 10 10 11 11 10
24 24 24 23 22 22 20 18 16 14 12 10 9 8 8 8 8 8 7 6 6 7 7 7 8 8 8 8 8 8 8 8 8 8 8 8 8 9 9 9 9 10 10 11 11 11 11 10 11
25 23 23 24 24 23 22 21 18 16 14 12 11 10 10 9 9 8 8 7 7 8 8 8 9 9 9 9 9 9 8 9 9 9 9 9 9 9 9 10 10 11 11 11 11 11 11 11 12
Wind_Direction
61 59 57 56 55 55 55 54 52 50 48 47 47 51 56 58 60 65 67 67 67 69 71 72 76 81 84 86 82 77 79 85 92 105 113 119 126 132 135 136 139 140 141 141 140 136 136 135 133
61 56 56 55 54 53 55 54 52 49 50 50 49 52 58 60 61 68 68 64 64 66 68 70 73 79 82 83 82 79 84 90 99 108 113 117 125 129 132 135 139 141 144 144 142 139 140 135 134
62 56 55 56 54 54 54 53 52 49 48 48 48 51 55 59 63 66 67 63 64 65 65 69 71 76 78 80 83 86 87 90 95 106 115 119 125 128 130 134 136 140 147 148 145 144 141 136 137
62 59 56 56 54 56 55 55 53 48 46 46 48 50 54 59 61 62 64 63 62 62 63 63 67 72 76 81 87 92 93 89 90 97 108 118 125 128 131 136 139 142 147 150 149 144 146 141 145
59 57 56 55 53 52 51 51 50 46 45 46 48 49 53 58 60 60 63 65 63 62 61 58 66 69 74 81 87 93 97 94 92 96 103 114 120 127 130 134 141 142 148 149 153 150 150 148 146
58 53 54 52 49 50 49 49 48 44 43 45 48 51 53 57 62 60 60 63 63 63 58 59 67 72 74 83 91 98 99 97 97 102 107 112 115 123 131 135 137 141 144 143 148 151 153 154 149
51 55 51 46 47 49 49 49 50 48 45 46 49 53 55 56 61 61 58 59 59 57 57 62 67 76 81 88 94 98 98 95 96 105 109 111 116 124 128 134 139 143 145 144 143 147 147 151 155
52 54 48 47 46 47 46 46 46 48 46 47 52 53 55 56 57 59 57 57 57 56 58 62 65 76 85 90 93 97 97 95 97 102 111 111 116 124 127 129 139 143 148 149 149 150 148 152 158
60 55 47 47 48 46 44 42 45 47 48 50 51 52 53 53 55 58 57 58 58 57 60 61 65 73 81 89 93 94 94 95 95 97 106 111 120 125 129 129 135 141 145 152 158 156 151 153 160
65 60 50 46 47 47 48 43 43 43 46 49 48 50 51 53 55 56 57 58 59 60 62 65 69 75 78 84 91 92 91 93 90 94 104 110 119 124 131 136 144 143 145 153 162 158 151 153 163
70 59 52 46 46 46 47 45 44 44 45 49 50 49 51 57 58 58 59 60 60 60 62 66 70 72 76 79 83 92 94 91 90 89 91 104 112 116 128 133 140 138 149 150 153 150 150 153 160
78 68 60 54 49 48 49 48 48 47 46 50 51 48 50 56 57 57 58 59 61 60 61 64 68 72 74 77 77 83 89 87 87 84 84 92 100 105 116 127 124 123 139 139 145 149 154 165 166
84 77 66 59 52 50 52 52 51 48 47 49 50 48 51 54 56 56 57 57 56 59 61 63 69 72 73 73 74 80 83 84 82 80 84 91 98 100 107 129 135 136 140 139 139 141 153 164 166
90 83 76 68 56 50 49 48 50 47 46 46 46 47 49 49 50 55 58 58 58 60 62 64 67 71 73 73 74 75 77 80 79 79 80 87 93 95 96 115 131 138 144 141 140 144 148 165 190
103 88 88 79 61 54 48 43 48 47 46 48 49 48 48 49 49 52 57 59 60 61 64 64 64 65 68 70 72 74 74 76 75 72 73 83 93 99 103 116 122 128 135 137 137 134 142 144 177
115 99 88 81 68 57 44 44 45 47 48 50 50 47 45 46 49 52 55 58 59 61 63 65 66 65 68 71 71 71 70 71 72 69 71 79 94 94 98 98 109 113 120 129 125 122 128 122 192
140 124 112 89 74 62 43 38 41 43 45 46 46 47 46 46 48 53 56 57 59 61 60 62 64 66 67 68 67 65 65 65 66 67 70 75 81 87 92 95 96 98 116 122 115 100 111 66 356
174 167 150 125 93 62 42 38 39 38 41 44 43 44 45 44 45 49 54 58 58 59 59 61 64 65 65 65 63 62 63 61 60 63 64 66 71 78 85 91 93 96 106 106 92 58 37 350 313
196 198 196 169 143 42 9 26 39 39 40 43 39 39 42 43 43 46 51 55 57 57 56 58 61 62 62 61 60 60 55 53 55 58 56 54 57 69 70 80 73 69 73 73 63 16 339 295 281
217 216 204 197 210 264 323 326 345 31 34 38 31 35 41 44 43 43 47 55 58 58 57 54 56 58 59 57 55 50 45 46 48 48 50 50 46 50 54 44 30 27 34 29 347 322 316 308 291
228 225 215 219 236 260 293 306 292 311 348 23 12 24 36 42 42 43 45 52 58 52 53 52 48 46 47 47 45 42 40 43 45 44 40 35 28 28 26 16 353 343 321 308 303 304 307 302 302
221 220 216 224 233 254 270 284 267 274 283 299 320 354 10 24 31 33 41 52 45 43 46 43 41 40 40 42 40 35 36 39 39 33 23 20 15 13 359 346 331 310 310 307 301 298 306 299 300
221 221 221 227 232 238 246 261 267 263 273 275 275 296 321 358 13 19 25 32 36 38 36 32 31 32 30 27 25 22 19 20 20 22 17 11 5 358 345 333 321 302 303 307 307 305 303 295 293
219 223 223 228 234 239 240 250 260 270 273 268 265 280 300 328 352 3 14 12 21 23 20 22 17 14 16 11 5 4 3 3 6 6 4 359 359 357 342 326 321 306 303 316 317 313 313 309 303
220 222 224 227 233 239 243 248 252 265 270 268 270 267 277 290 305 322 352 358 356 357 357 359 358 353 350 350 352 351 352 357 1 359 354 351 348 345 332 324 320 317 315 317 320 319 317 309 306
226 228 231 233 236 240 243 249 254 262 263 264 259 254 260 277 281 299 335 339 331 328 332 336 339 339 339 340 343 336 337 341 348 351 352 352 349 340 331 329 324 323 320 319 316 312 310 307 304
225 230 235 234 239 243 246 247 247 255 262 266 254 247 256 271 268 279 307 314 310 310 315 323 324 326 326 326 328 328 327 327 331 340 343 343 341 338 331 327 324 322 319 316 311 308 310 311 306
226 229 232 232 238 243 243 243 247 253 265 275 270 254 263 267 260 270 287 298 301 300 294 301 311 314 315 314 311 314 318 319 316 321 328 330 330 330 328 323 320 318 315 312 310 310 311 309 303
224 226 229 231 238 242 243 245 247 254 256 263 265 265 267 264 261 265 271 276 281 285 285 292 301 303 302 299 299 303 306 308 309 310 312 315 317 321 325 324 320 318 315 310 307 309 311 312 311
224 226 229 233 236 240 244 248 249 253 258 259 261 264 262 254 258 262 262 267 271 278 285 290 295 298 296 294 294 299 301 301 302 305 306 309 313 316 318 317 317 318 317 313 307 306 308 310 313
Height
5894 5894 5893 5893 5892 5891 5889 5888 5887 5886 5886 5884 5883 5882 5881 5881 5881 5882 5879 5877 5876 5876 5875 5875 5875 5875 5874 5874 5874 5874 5874 5874 5874 5873 5874 5874 5875 5875 5876 5877 5878 5879 5880 5881 5881 5882 5883 5884 5885
5896 5896 5896 5895 5893 5892 5891 5890 5889 5888 5888 5886 5884 5883 5883 5882 5881 5880 5879 5879 5878 5877 5877 5876 5876 5875 5875 5875 5875 5875 5875 5875 5875 5875 5875 5875 5876 5876 5877 5878 5879 5880 5881 5882 5883 5884 5885 5885 5886
5898 5897 5898 5896 5894 5894 5893 5891 5891 5889 5888 5887 5886 5885 5884 5884 5882 5881 5881 5880 5879 5878 5878 5877 5877 5876 5876 5876 5876 5876 5876 5876 5876 5876 5876 5877 5877 5877 5879 5879 5880 5881 5882 5883 5884 5885 5886 5886 5887
5901 5900 5899 5897 5896 5895 5894 5893 5892 5891 5890 5889 5888 5887 5886 5885 5884 5883 5882 5881 5880 5880 5879 5879 5878 5877 5877 5877 5877 5877 5877 5877 5877 5877 5878 5878 5879 5879 5880 5881 5881 5882 5883 5884 5885 5886 5886 5887 5887
5902 5902 5900 5899 5897 5896 5896 5895 5894 5893 5892 5890 5889 5888 5887 5886 5885 5884 5883 5882 5882 5881 5881 5880 5879 5879 5878 5878 5878 5878 5878 5879 5879 5879 5879 5879 5880 5880 5881 5882 5882 5883 5884 5885 5886 5886 5887 5887 5888
5904 5903 5902 5900 5899 5898 5897 5896 5896 5895 5893 5892 5891 5890 5888 5887 5886 5885 5884 5884 5883 5883 5882 5881 5880 5880 5879 5879 5879 5879 5880 5880 5880 5880 5880 5880 5880 5880 5881 5882 5883 5884 5884 5885 5886 5887 5887 5888 5889
5906 5904 5903 5902 5901 5901 5900 5899 5898 5897 5895 5894 5892 5891 5890 5888 5888 5887 5886 5885 5885 5884 5883 5882 5881 5881 5881 5880 5880 5880 5881 5881 5881 5881 5881 5881 5882 5882 5882 5883 5884 5885 5885 5886 5887 5887 5888 5888 5889
5906 5906 5905 5904 5903 5903 5902 5901 5899 5898 5897 5896 5894 5892 5891 5890 5889 5888 5887 5887 5886 5885 5884 5883 5882 5882 5882 5881 5882 5882 5882 5882 5882 5882 5882 5882 5883 5883 5884 5884 5885 5885 5886 5887 5887 5888 5888 5889 5889
5907 5908 5906 5906 5906 5905 5904 5903 5901 5900 5898 5897 5895 5894 5893 5891 5890 5890 5889 5888 5888 5886 5885 5884 5884 5883 5883 5883 5883 5883 5883 5883 5883 5883 5883 5883 5883 5884 5884 5885 5885 5886 5887 5887 5887 5888 5889 5889 5889
5909 5909 5908 5908 5908 5907 5906 5905 5903 5901 5900 5898 5897 5896 5894 5893 5892 5891 5891 5890 5889 5888 5887 5887 5886 5885 5885 5885 5885 5885 5885 5884 5884 5884 5884 5883 5884 5884 5885 5886 5886 5886 5887 5887 5887 5888 5889 5889 5889
5910 5910 5909 5909 5909 5908 5907 5906 5905 5903 5902 5901 5899 5898 5896 5895 5894 5893 5893 5892 5891 5890 5889 5888 5888 5887 5886 5886 5886 5886 5886 5886 5885 5885 5885 5884 5885 5885 5886 5886 5887 5887 5886 5886 5887 5888 5889 5889 5889
5911 5911 5911 5910 5910 5910 5908 5907 5906 5905 5904 5903 5901 5899 5898 5897 5896 5895 5894 5893 5893 5892 5891 5890 5889 5889 5888 5888 5887 5887 5887 5887 5887 5886 5886 5886 5886 5886 5886 5887 5887 5887 5887 5887 5888 5888 5889 5889 5890
5912 5912 5912 5911 5911 5911 5910 5909 5909 5907 5906 5904 5903 5901 5900 5899 5898 5897 5896 5895 5894 5893 5893 5892 5891 5890 5890 5889 5889 5888 5888 5888 5888 5887 5887 5887 5887 5887 5887 5887 5887 5887 5888 5888 5888 5889 5889 5889 5889
5913 5913 5913 5912 5912 5911 5911 5911 5910 5909 5907 5906 5905 5903 5902 5901 5900 5899 5898 5897 5896 5895 5894 5893 5893 5892 5891 5891 5890 5890 5890 5889 5889 5889 5888 5888 5888 5888 5888 5887 5887 5888 5888 5888 5889 5889 5889 5889 5889
5914 5914 5914 5913 5913 5912 5912 5912 5911 5910 5909 5908 5907 5905 5904 5903 5902 5901 5899 5898 5898 5897 5896 5895 5894 5893 5893 5892 5892 5891 5891 5890 5890 5890 5889 5889 5888 5888 5888 5888 5888 5888 5889 5889 5889 5889 5889 5889 5889
5913 5915 5915 5915 5914 5913 5915 5914 5913 5911 5910 5910 5909 5908 5906 5905 5903 5902 5901 5900 5899 5898 5897 5897 5896 5895 5895 5894 5893 5893 5892 5892 5891 5891 5890 5890 5889 5889 5889 5889 5889 5889 5889 5889 5889 5889 5889 5889 5889
5913 5914 5915 5915 5914 5914 5915 5914 5914 5913 5912 5911 5910 5909 5908 5907 5905 5904 5903 5902 5901 5900 5899 5898 5898 5897 5896 5895 5895 5894 5894 5893 5892 5892 5891 5891 5890 5890 5890 5890 5890 5889 5889 5889 5889 5889 5889 5888 5888
5913 5914 5914 5914 5915 5915 5915 5915 5914 5914 5913 5912 5911 5910 5909 5908 5907 5906 5905 5904 5903 5902 5901 5900 5899 5898 5898 5897 5896 5895 5895 5894 5893 5893 5892 5892 5891 5891 5891 5890 5890 5890 5890 5890 5889 5889 5889 5888 5887
5912 5913 5913 5914 5915 5915 5914 5915 5914 5914 5913 5913 5912 5911 5910 5910 5908 5907 5906 5905 5904 5904 5903 5902 5901 5900 5899 5898 5898 5897 5896 5895 5894 5894 5893 5893 5892 5892 5891 5891 5890 5890 5890 5889 5889 5889 5888 5887 5887
5910 5911 5912 5913 5914 5914 5913 5914 5914 5914 5913 5913 5912 5911 5911 5910 5909 5908 5907 5907 5906 5905 5904 5903 5902 5901 5900 5899 5899 5898 5897 5896 5895 5894 5893 5893 5893 5892 5892 5891 5891 5890 5890 5889 5889 5888 5887 5886 5886
5908 5910 5911 5912 5912 5912 5912 5913 5913 5913 5913 5913 5912 5911 5911 5910 5910 5909 5908 5907 5906 5906 5905 5904 5903 5902 5901 5900 5899 5899 5898 5897 5896 5895 5894 5893 5893 5892 5891 5891 5890 5890 5889 5889 5888 5887 5886 5885 5885
5906 5908 5909 5910 5911 5911 5912 5912 5912 5912 5912 5912 5912 5911 5911 5910 5910 5909 5909 5908 5907 5907 5905 5905 5904 5903 5902 5901 5900 5899 5898 5897 5896 5895 5894 5893 5892 5892 5891 5890 5889 5889 5888 5887 5886 5886 5885 5884 5883
5904 5906 5906 5907 5908 5909 5910 5910 5911 5910 5910 5911 5911 5910 5910 5910 5909 5909 5908 5908 5908 5907 5906 5905 5904 5903 5902 5900 5899 5898 5898 5897 5896 5895 5894 5893 5892 5891 5890 5889 5888 5887 5887 5886 5885 5884 5883 5882 5882
5901 5903 5903 5904 5905 5906 5907 5908 5908 5908 5908 5909 5909 5909 5909 5908 5908 5908 5908 5907 5907 5906 5906 5905 5904 5903 5902 5901 5899 5898 5897 5896 5895 5894 5893 5892 5891 5890 5888 5888 5886 5886 5885 5884 5883 5882 5881 5880 5880
5897 5899 5900 5901 5901 5903 5904 5904 5906 5906 5906 5907 5907 5907 5907 5907 5907 5907 5907 5906 5906 5906 5905 5905 5904 5903 5902 5901 5899 5898 5897 5896 5895 5893 5892 5891 5890 5888 5887 5886 5885 5885 5884 5882 5882 5881 5880 5878 5878
5893 5895 5897 5898 5898 5900 5900 5900 5903 5904 5904 5904 5904 5905 5905 5905 5905 5905 5905 5905 5905 5905 5904 5904 5903 5902 5901 5900 5899 5898 5896 5895 5894 5893 5891 5890 5889 5887 5886 5885 5884 5883 5882 5881 5879 5879 5877 5876 5875
5889 5890 5893 5894 5894 5895 5896 5897 5899 5901 5901 5901 5901 5902 5902 5903 5903 5903 5903 5903 5903 5903 5903 5902 5901 5901 5900 5899 5898 5897 5895 5894 5893 5892 5890 5889 5887 5886 5885 5884 5883 5882 5880 5879 5877 5876 5875 5873 5872
5884 5886 5888 5889 5890 5891 5892 5894 5896 5897 5898 5899 5898 5898 5900 5901 5901 5901 5901 5901 5902 5901 5901 5900 5899 5899 5898 5897 5896 5895 5894 5893 5892 5891 5889 5888 5886 5885 5884 5882 5881 5880 5878 5877 5875 5874 5872 5871 5869
5879 5881 5882 5883 5885 5887 5888 5892 5892 5893 5894 5895 5896 5896 5897 5898 5899 5899 5899 5899 5900 5900 5899 5898 5897 5897 5896 5895 5894 5893 5892 5891 5890 5888 5887 5886 5884 5883 5882 5880 5879 5877 5876 5874 5873 5871 5870 5868 5867
5873 5875 5877 5879 5880 5882 5884 5889 5888 5889 5891 5892 5893 5893 5894 5895 5896 5896 5896 5897 5897 5897 5896 5896 5895 5894 5893 5892 5892 5890 5889 5888 5887 5886 5885 5883 5882 5881 5879 5878 5877 5875 5874 5872 5870 5868 5867 5865 5864